{"data":{"norad_id":52118,"epoch":"2026-05-25T02:40:37.991712Z","epoch_age_seconds":68641,"freshness":"FRESH","line1":"1 52118U 22029AG  26145.11155083  .00001928  00000+0  13913-3 0  9993","line2":"2 52118  53.2150  96.0501 0001242  52.7414 307.3691 15.08857652232326","mean_motion":15.08857652,"eccentricity":0.0001242,"inclination_deg":53.215,"raan_deg":96.0501,"arg_perigee_deg":52.7414,"mean_anomaly_deg":307.3691,"bstar":0.00013913,"rev_number":23232,"period_min":95.436438161762,"perigee_km":538.83024034476,"apogee_km":540.54862843106,"semimajor_km":6917.8264343879,"source":"CELESTRAK","updated_at":"2026-05-25T13:38:17.074794Z"}}